Regional Weather Roundup
Issued by NWS

Home | Current Version | Previous Version | Text Only | Print | Product List | Glossary Off
Versions: 1 2 3 4 5 6 7 8 9 10 11 12 13 14 15 16 17 18 19 20 21 22 23 24 25 26 27 28 29 30 31 32 33 34 35 36 37 38 39 40 41 42 43 44 45 46 47 48 49 50

000
ASUS43 KMPX 201901
RWRMN
WEATHER ROUNDUP FOR MINNESOTA
NATIONAL WEATHER SERVICE TWIN CITIES/CHANHASSEN MN
200 PM CDT SAT SEP 20 2014


NOTE: "FAIR" INDICATES FEW OR NO CLOUDS BELOW 12,000 FEET WITH NO
SIGNIFICANT WEATHER AND/OR OBSTRUCTIONS TO VISIBILITY. N/A MEANS
CURRENT SKY AND/OR WEATHER CONDITIONS ARE NOT AVAILABLE.

MNZ060>063-068>070-202000-
   Twin Cities Metro

CITY           SKY/WX    TMP DP  RH WIND       PRES   REMARKS
TWIN CITIES    MOSUNNY   75  54  47 W15       29.77F
ST PAUL        MOSUNNY   75  57  53 W12       29.77F
CRYSTAL        MOSUNNY   76  56  49 W15       29.76F
BLAINE         MOSUNNY   75  55  50 NW17G23   29.77F
LAKEVILLE      SUNNY     73  55  53 W12G20    29.78F
EDEN PRAIRIE   SUNNY     75  55  49 NW14      29.78F
SOUTH ST PAUL  SUNNY     75  54  48 W10       29.77F
LAKE ELMO      FAIR      73  57  56 NW16      29.78F
$$
MNZ001>005-007-008-013>017-022>024-027-028-202000-
   Northwest Minnesota

CITY           SKY/WX    TMP DP  RH WIND       PRES   REMARKS
BEMIDJI        CLOUDY    63  55  73 SW6       29.73F
HALLOCK        RAIN      55  54  94 NW21G29   29.73S
ROSEAU         TSTM      55  52  88 CALM      29.72R
WARROAD        CLOUDY    61  50  67 W7        29.72S
THIEF RVR FALL CLOUDY    57  52  82 W15G26    29.71S
CROOKSTON      CLOUDY    55  55 100 NW20      29.75S
FOSSTON        PTSUNNY   66  55  68 SW12      29.72F
DETROIT LAKES  MOSUNNY   66  55  68 SW10      29.78F
MOORHEAD       RAIN      64  61  88 NW26G38   29.81R
PARK RAPIDS    PTSUNNY   69  54  58 W12       29.75F
MAHNOMEN       MOCLDY    67  56  68 SW12G20   29.74F
$$
MNZ006-009>011-018-025>026-202000-
   North Central Minnesota

CITY           SKY/WX    TMP DP  RH WIND       PRES   REMARKS
BAUDETTE       PTSUNNY   61  45  55 CALM      29.70F
FLAG ISLAND    PTSUNNY   55  48  76 S5        29.71S
INTL FALLS     PTSUNNY   59  48  67 W7        29.72F
WASKISH        PTSUNNY   61  54  77 CALM      29.71F
BIG FORK         N/A     66  48  52 W5        29.73F
LONGVILLE      PTSUNNY   64  55  72 W3        29.76F
GRAND RAPIDS   MOSUNNY   64  48  55 NW9       29.74F
CRANE LAKE     CLOUDY    54  52  94 W3        29.75S
ORR            MOSUNNY   61  45  55 NW5       29.71F
COOK           SUNNY     63  46  55 W7        29.72F
WALKER         MOCLDY    64  55  72 SW7       29.74F
$$
MNZ012-019>021-037-202000-
   Northeast Minnesota

CITY           SKY/WX    TMP DP  RH WIND       PRES   REMARKS
DULUTH         MOSUNNY   68  47  46 W13       29.71F
ELY            CLOUDY    54  50  87 W7        29.73S
HIBBING        SUNNY     67  45  45 NW9       29.73F
EVELETH        SUNNY     63  45  51 NW10      29.73F
DULUTH HARBOR  SUNNY     70  52  52 W12       29.71F
TWO HARBORS    MOSUNNY   66  50  55 W9        29.69F
SILVER BAY     SUNNY     57  55  94 W6        29.71R
GRAND MARAIS     N/A     66  53  63 VRB6      29.65S
G MARAIS ARPRT MOSUNNY   61  48  63 W5        29.69S
$$
MNZ029>031-032-039>041-046>048-054>057-064-202000-
   West Central Minnesota

CITY           SKY/WX    TMP DP  RH WIND       PRES   REMARKS
FERGUS FALLS   MOSUNNY   70  54  56 W12       29.78F
WHEATON        MOSUNNY   73  55  53 SW10      29.77F
MORRIS         SUNNY     77  55  47 W13G20    29.78F
ALEXANDRIA     MOSUNNY   71  56  58 SW9       29.81F
ELBOW LAKE     FAIR      71  57  60 SW12G17   29.78F
WADENA         MOSUNNY   68  55  64 SW10G17   29.77F
GLENWOOD       SUNNY     72  55  56 W10G17    29.81F
APPLETON       SUNNY     79  55  44 W10G18    29.79F
BENSON         SUNNY     75  57  53 NW14      29.80F
ORTONVILLE     MOSUNNY   79  54  41 W8G17     29.79F
MADISON        SUNNY     81  57  44 W12G17    29.80F
WILLMAR        FAIR      75  55  50 W10G17    29.83F
$$
MNZ033>034-036-042>043-049>051-058-059-202000-
   Central Minnesota

CITY           SKY/WX    TMP DP  RH WIND       PRES   REMARKS
ST CLOUD       MOSUNNY   75  55  49 W13       29.78F
SAUK CENTRE    FAIR      71  56  58 W16       29.80F
PAYNESVILLE    SUNNY     71  52  52 SW12G21   29.81F
AITKIN         PTSUNNY   66  55  68 W5        29.76S
PINE RIVER     CLOUDY    64  55  72 W6        29.81F
BRAINERD       PTSUNNY   65  55  70 W10       29.78F
STAPLES        PTSUNNY   70  54  56 W10       29.78F
LONG PRAIRIE   FAIR      68  54  60 SW12      29.80F
LITTLE FALLS   PTSUNNY   70  54  56 W9        29.78F
LITCHFIELD     SUNNY     73  57  56 W10       29.81F
BUFFALO        SUNNY     73  55  53 W13       29.80F
MAPLE LAKE     SUNNY     73  59  61 W10       29.80F
$$
MNZ037-044-045-052-053-202000-
   East Central Minnesota

CITY           SKY/WX    TMP DP  RH WIND       PRES   REMARKS
PRINCETON      MOSUNNY   73  57  56 W14       29.78F
MORA           PTSUNNY   68  54  60 W10G18    29.78F
CAMBRIDGE      MOSUNNY   73  57  56 NW12G17   29.75F
RUSH CITY      MOSUNNY   70  56  59 W9        29.76F
MOOSE LAKE     PTSUNNY   68  52  56 W8        29.73F
HINCKLEY       MOCLDY    68  54  60 W12G18    29.76F
CLOQUET        SUNNY     68  48  49 W10G17    29.73F
MCGREGOR       MOSUNNY   64  52  63 W9G16     29.76F
$$
MNZ071>073-080-081-089-090-097-098-202000-
   Southwest Minnesota

CITY           SKY/WX    TMP DP  RH WIND       PRES   REMARKS
MONTEVIDEO     MOSUNNY   81  59  47 NW7       29.82F
GRANITE FALLS  SUNNY     77  58  51 SW14      29.83F
CANBY          SUNNY     78  55  44 W13       29.83F
MARSHALL       SUNNY     79  54  41 W18       29.82F
REDWOOD FALLS  SUNNY     78  55  44 W17       29.82F
OLIVIA         SUNNY     73  55  53 W14       29.81F
PIPESTONE      SUNNY     79  52  38 W21       29.89F
WINDOM         MOSUNNY   79  54  41 W10G18    29.85F
WORTHINGTON    MOSUNNY   77  54  44 W17       29.88F
JACKSON        SUNNY     79  52  38 W14G23    29.87S
TRACY          MOSUNNY   79  56  45 W7G18     29.85F
SLAYTON        SUNNY     77  51  40 W14G24    29.88F
$$
MNZ065>067-074>077-082>085-091>093-202000-
   South Central Minnesota

CITY           SKY/WX    TMP DP  RH WIND       PRES   REMARKS
MANKATO        SUNNY     75  54  46 W14       29.81F
NEW ULM        SUNNY     75  57  53 W14       29.82F
ST JAMES       SUNNY     79  55  44 W13G20    29.84F
FAIRMONT       SUNNY     79  55  44 NW14      29.84F
GLENCOE        SUNNY     76  53  45 W12       29.80F
FARIBAULT      SUNNY     79  48  34 W8G17     29.80F
OWATONNA       SUNNY     75  52  43 W13G18    29.81F
WASECA         SUNNY     77  52  41 W9G16     29.83F
ALBERT LEA     SUNNY     75  55  50 NW9G20    29.82F
$$
MNZ078>079-086>088-094>096-202000-
   Southeast Minnesota

CITY           SKY/WX    TMP DP  RH WIND       PRES   REMARKS
ROCHESTER      SUNNY     75  56  51 W17G24    29.82S
RED WING       SUNNY     77  54  44 W14       29.76F
STANTON        MOSUNNY   76  55  47 NW10G17   29.78F
DODGE CENTER   SUNNY     73  55  53 NW17      29.81F
WINONA         MOSUNNY   77  59  53 NW13      29.77R
AUSTIN         SUNNY     73  57  56 W16G22    29.82S
PRESTON        SUNNY     74  63  69 NW16G24   29.81S
$$
ABBREVIATIONS USED IN REMARKS
   TC - TEMPERATURES IN CELSIUS
  WCI - WIND CHILL INDEX
   HX - HEAT INDEX
  VSB - VISIBILITY
$$


USA.gov is the U.S. government's official web portal to all federal, state and local government web resources and services.